Simultaneous Nadir Overpasses (SNOs) Predictions

Prediction of SNOs between GOES-17 and LANDSAT-8 Satellite Orbit:

Table of predicted SNOs for the next 14.0 days since TLE Epoch: 10/28/2023
Index Date Time (GOES-17) GOES-17 Lat,Lon LANDSAT-8 Lat,Lon Distance(km) Time Diff (sec)
1 10/28/2023 05:01:10 -0.00,-104.67 0.47,-102.57 238.92 80
2 10/28/2023 17:22:25 0.00,-104.68 0.67,-107.72 345.95 80
3 10/30/2023 17:10:14 -0.00,-104.68 0.04,-104.76 9.95 80
4 11/01/2023 17:00:43 -0.00,-104.69 -0.61,-101.81 326.78 80
5 11/02/2023 05:22:07 0.00,-104.68 -0.50,-107.00 264.54 80
6 11/04/2023 05:07:15 0.00,-104.68 0.11,-104.04 72.20 80
7 11/06/2023 04:55:03 -0.00,-104.68 0.75,-101.08 409.32 80
8 11/06/2023 17:16:19 0.00,-104.69 0.31,-106.24 175.90 80
9 11/08/2023 17:06:46 0.00,-104.70 -0.28,-103.27 161.85 80
10 11/09/2023 05:28:10 -0.00,-104.70 -0.81,-108.47 428.38 80
11 11/10/2023 16:54:34 0.00,-104.71 -0.96,-100.32 499.80 80
